Time,TemperatureF,DewpointF,PressureIn,WindDirection,WindDirectionDegrees,WindSpeedMPH,WindSpeedGustMPH,Humidity,HourlyPrecipIn,Conditions,Clouds,dailyrainin,SoftwareType,DateUTC
2013-09-24 00:03:00,72.1,70.0,30.02,SSE,154,0.0,2.0,93,0.00,,,0.00,WeatherCatV1.15B25,2013-09-24 10:03:00,
2013-09-24 00:08:00,72.0,69.9,30.02,SSE,148,2.0,7.0,93,0.00,,,0.00,WeatherCatV1.15B25,2013-09-24 10:08:00,
2013-09-24 00:13:00,72.0,69.9,30.01,SSE,148,4.0,6.0,93,0.00,,,0.00,WeatherCatV1.15B25,2013-09-24 10:13:00,
2013-09-24 00:18:00,71.9,69.8,30.01,SSE,148,0.0,0.0,93,0.00,,,0.00,WeatherCatV1.15B25,2013-09-24 10:18:00,
2013-09-24 00:23:00,71.8,69.7,30.01,SSE,148,2.0,6.0,93,0.00,,,0.00,WeatherCatV1.15B25,2013-09-24 10:23:00,
2013-09-24 00:28:00,71.8,69.7,30.01,SSE,152,0.0,7.0,93,0.00,,,0.00,WeatherCatV1.15B25,2013-09-24 10:28:00,
2013-09-24 00:33:00,71.9,69.8,30.01,SSE,157,1.0,6.0,93,0.00,,,0.01,WeatherCatV1.15B25,2013-09-24 10:33:00,
2013-09-24 00:38:00,71.9,69.8,30.01,SSE,158,5.0,5.0,93,0.14,,,0.02,WeatherCatV1.15B25,2013-09-24 10:38:00,
2013-09-24 00:43:00,71.7,69.6,30.01,SSE,158,4.0,5.0,93,0.07,,,0.02,WeatherCatV1.15B25,2013-09-24 10:43:00,
2013-09-24 00:48:00,71.5,69.4,30.01,SSE,159,0.0,1.0,93,0.04,,,0.02,WeatherCatV1.15B25,2013-09-24 10:48:00,
2013-09-24 00:53:00,71.4,69.3,30.00,SSE,159,0.0,1.0,93,0.00,,,0.02,WeatherCatV1.15B25,2013-09-24 10:53:00,
2013-09-24 00:58:00,71.3,69.2,30.00,SSE,160,4.0,5.0,93,0.00,,,0.02,WeatherCatV1.15B25,2013-09-24 10:58:00,
2013-09-24 01:03:00,71.3,69.2,30.00,SSE,160,0.0,4.0,93,0.00,,,0.02,WeatherCatV1.15B25,2013-09-24 11:03:00,
2013-09-24 01:08:00,71.4,69.6,30.00,SSE,160,4.0,4.0,94,0.00,,,0.02,WeatherCatV1.15B25,2013-09-24 11:08:00,
2013-09-24 01:13:00,71.5,69.7,30.00,SSE,161,2.0,6.0,94,0.00,,,0.02,WeatherCatV1.15B25,2013-09-24 11:13:00,
2013-09-24 01:18:00,71.6,69.8,30.00,SSE,157,1.0,5.0,94,0.00,,,0.03,WeatherCatV1.15B25,2013-09-24 11:18:00,
2013-09-24 01:23:00,71.8,70.0,30.00,SSE,157,0.0,2.0,94,0.00,,,0.03,WeatherCatV1.15B25,2013-09-24 11:23:00,
2013-09-24 01:28:00,71.9,70.1,30.00,SSE,150,2.0,9.0,94,0.00,,,0.03,WeatherCatV1.15B25,2013-09-24 11:28:00,
2013-09-24 01:33:00,71.9,69.8,30.00,SSE,150,1.0,6.0,93,0.00,,,0.03,WeatherCatV1.15B25,2013-09-24 11:33:00,
2013-09-24 01:38:00,71.8,69.7,30.00,SSE,148,2.0,4.0,93,0.00,,,0.03,WeatherCatV1.15B25,2013-09-24 11:38:00,
2013-09-24 01:43:00,71.7,69.6,30.00,SSE,162,0.0,4.0,93,0.00,,,0.03,WeatherCatV1.15B25,2013-09-24 11:43:00,
2013-09-24 01:48:00,71.7,69.6,29.99,SSE,163,0.0,4.0,93,0.00,,,0.03,WeatherCatV1.15B25,2013-09-24 11:48:00,
2013-09-24 01:53:00,71.6,69.5,30.00,SSE,164,0.0,4.0,93,0.00,,,0.03,WeatherCatV1.15B25,2013-09-24 11:53:00,
2013-09-24 01:58:00,71.6,69.5,30.00,SSE,165,1.0,5.0,93,0.00,,,0.03,WeatherCatV1.15B25,2013-09-24 11:58:00,
2013-09-24 02:03:00,71.6,69.5,29.99,SSE,166,4.0,5.0,93,0.00,,,0.03,WeatherCatV1.15B25,2013-09-24 12:03:00,
2013-09-24 02:08:00,71.6,69.5,29.99,SSE,167,2.0,5.0,93,0.00,,,0.03,WeatherCatV1.15B25,2013-09-24 12:08:00,
2013-09-24 02:13:00,71.5,69.4,29.99,SSE,167,0.0,4.0,93,0.00,,,0.03,WeatherCatV1.15B25,2013-09-24 12:13:00,
2013-09-24 02:18:00,71.4,69.3,29.99,SSE,167,6.0,6.0,93,0.00,,,0.03,WeatherCatV1.15B25,2013-09-24 12:18:00,
2013-09-24 02:23:00,71.5,69.4,29.99,SSE,168,0.0,5.0,93,0.00,,,0.03,WeatherCatV1.15B25,2013-09-24 12:23:00,
2013-09-24 02:28:00,71.5,69.4,29.99,South,169,0.0,2.0,93,0.00,,,0.03,WeatherCatV1.15B25,2013-09-24 12:28:00,
2013-09-24 02:33:00,71.5,69.0,29.99,South,171,4.0,4.0,92,0.00,,,0.03,WeatherCatV1.15B25,2013-09-24 12:33:00,
2013-09-24 02:38:00,71.4,68.9,29.99,South,171,0.0,4.0,92,0.00,,,0.03,WeatherCatV1.15B25,2013-09-24 12:38:00,
2013-09-24 02:43:00,71.4,68.9,29.99,South,176,1.0,9.0,92,0.00,,,0.03,WeatherCatV1.15B25,2013-09-24 12:43:00,
2013-09-24 02:48:00,71.5,69.0,29.99,South,178,0.0,7.0,92,0.00,,,0.03,WeatherCatV1.15B25,2013-09-24 12:48:00,
2013-09-24 02:53:00,71.5,69.0,29.99,South,178,2.0,6.0,92,0.00,,,0.03,WeatherCatV1.15B25,2013-09-24 12:53:00,
2013-09-24 02:58:00,71.5,69.0,29.99,South,178,0.0,5.0,92,0.00,,,0.03,WeatherCatV1.15B25,2013-09-24 12:58:00,
2013-09-24 03:03:00,71.5,69.0,29.98,South,178,0.0,0.0,92,0.00,,,0.03,WeatherCatV1.15B25,2013-09-24 13:03:00,
2013-09-24 03:08:00,71.4,68.6,29.99,South,178,0.0,5.0,91,0.00,,,0.03,WeatherCatV1.15B25,2013-09-24 13:08:00,
2013-09-24 03:13:00,71.3,68.5,29.98,South,178,2.0,4.0,91,0.00,,,0.03,WeatherCatV1.15B25,2013-09-24 13:13:00,
2013-09-24 03:18:00,71.3,68.5,29.98,South,178,0.0,4.0,91,0.00,,,0.03,WeatherCatV1.15B25,2013-09-24 13:18:00,
2013-09-24 03:23:00,71.2,68.4,29.98,South,178,0.0,0.0,91,0.00,,,0.03,WeatherCatV1.15B25,2013-09-24 13:23:00,
2013-09-24 03:28:00,71.2,68.4,29.98,South,178,0.0,0.0,91,0.00,,,0.03,WeatherCatV1.15B25,2013-09-24 13:28:00,
2013-09-24 03:33:00,71.1,68.3,29.98,South,178,6.0,6.0,91,0.00,,,0.03,WeatherCatV1.15B25,2013-09-24 13:33:00,
2013-09-24 03:38:00,71.1,68.3,29.98,South,178,0.0,2.0,91,0.00,,,0.03,WeatherCatV1.15B25,2013-09-24 13:38:00,
2013-09-24 03:43:00,71.0,68.2,29.98,South,178,0.0,0.0,91,0.00,,,0.03,WeatherCatV1.15B25,2013-09-24 13:43:00,
2013-09-24 03:48:00,71.0,68.2,29.98,South,178,4.0,4.0,91,0.00,,,0.03,WeatherCatV1.15B25,2013-09-24 13:48:00,
2013-09-24 03:53:00,71.0,68.2,29.98,South,178,0.0,4.0,91,0.00,,,0.03,WeatherCatV1.15B25,2013-09-24 13:53:00,
2013-09-24 03:58:00,71.0,68.2,29.98,South,178,0.0,6.0,91,0.00,,,0.03,WeatherCatV1.15B25,2013-09-24 13:58:00,
2013-09-24 04:03:00,71.1,68.3,29.98,South,178,0.0,4.0,91,0.00,,,0.03,WeatherCatV1.15B25,2013-09-24 14:03:00,
2013-09-24 04:08:00,71.1,68.3,29.98,South,178,0.0,4.0,91,0.00,,,0.03,WeatherCatV1.15B25,2013-09-24 14:08:00,
2013-09-24 04:13:00,71.2,68.4,29.98,South,178,0.0,4.0,91,0.00,,,0.03,WeatherCatV1.15B25,2013-09-24 14:13:00,
2013-09-24 04:18:00,71.2,68.4,29.98,South,178,0.0,2.0,91,0.00,,,0.03,WeatherCatV1.15B25,2013-09-24 14:18:00,
2013-09-24 04:23:00,71.3,68.5,29.98,South,178,0.0,4.0,91,0.00,,,0.03,WeatherCatV1.15B25,2013-09-24 14:23:00,
2013-09-24 04:28:00,71.3,68.5,29.98,South,179,0.0,4.0,91,0.00,,,0.03,WeatherCatV1.15B25,2013-09-24 14:28:00,
2013-09-24 04:33:00,71.3,68.2,29.98,South,180,0.0,4.0,90,0.00,,,0.03,WeatherCatV1.15B25,2013-09-24 14:33:00,
2013-09-24 04:38:00,71.3,68.2,29.98,South,180,0.0,0.0,90,0.00,,,0.03,WeatherCatV1.15B25,2013-09-24 14:38:00,
2013-09-24 04:43:00,71.3,68.2,29.98,South,180,0.0,3.0,90,0.00,,,0.03,WeatherCatV1.15B25,2013-09-24 14:43:00,
2013-09-24 04:48:00,71.3,68.5,29.98,South,180,2.0,3.0,91,0.00,,,0.03,WeatherCatV1.15B25,2013-09-24 14:48:00,
2013-09-24 04:53:00,71.3,68.5,29.98,South,180,0.0,3.0,91,0.00,,,0.03,WeatherCatV1.15B25,2013-09-24 14:53:00,
2013-09-24 04:58:00,71.3,68.5,29.99,South,180,1.0,2.0,91,0.00,,,0.03,WeatherCatV1.15B25,2013-09-24 14:58:00,
2013-09-24 05:03:00,71.3,68.2,29.99,South,180,0.0,2.0,90,0.00,,,0.03,WeatherCatV1.15B25,2013-09-24 15:03:00,
2013-09-24 05:08:00,71.3,68.2,29.99,South,180,0.0,2.0,90,0.00,,,0.03,WeatherCatV1.15B25,2013-09-24 15:08:00,
2013-09-24 05:13:00,71.2,68.4,29.99,South,180,0.0,3.0,91,0.00,,,0.03,WeatherCatV1.15B25,2013-09-24 15:13:00,
2013-09-24 05:18:00,71.2,68.1,29.99,South,180,0.0,1.0,90,0.00,,,0.03,WeatherCatV1.15B25,2013-09-24 15:18:00,
2013-09-24 05:23:00,71.2,68.4,29.99,South,180,3.0,3.0,91,0.00,,,0.03,WeatherCatV1.15B25,2013-09-24 15:23:00,
2013-09-24 05:28:00,71.2,68.4,29.99,South,180,0.0,3.0,91,0.00,,,0.03,WeatherCatV1.15B25,2013-09-24 15:28:00,
2013-09-24 05:33:00,71.1,68.3,29.99,South,180,4.0,4.0,91,0.00,,,0.03,WeatherCatV1.15B25,2013-09-24 15:33:00,
2013-09-24 05:38:00,71.1,68.3,29.99,South,180,0.0,3.0,91,0.00,,,0.03,WeatherCatV1.15B25,2013-09-24 15:38:00,
2013-09-24 05:43:00,71.1,68.3,29.99,South,180,0.0,2.0,91,0.00,,,0.03,WeatherCatV1.15B25,2013-09-24 15:43:00,
2013-09-24 05:48:00,71.1,68.3,29.99,South,180,0.0,3.0,91,0.00,,,0.03,WeatherCatV1.15B25,2013-09-24 15:48:00,
2013-09-24 05:53:00,71.2,68.4,29.99,South,180,0.0,5.0,91,0.00,,,0.03,WeatherCatV1.15B25,2013-09-24 15:53:00,
2013-09-24 05:58:00,71.2,68.4,30.00,South,180,0.0,1.0,91,0.00,,,0.03,WeatherCatV1.15B25,2013-09-24 15:58:00,
2013-09-24 06:03:00,71.2,68.4,29.99,South,180,2.0,3.0,91,0.00,,,0.03,WeatherCatV1.15B25,2013-09-24 16:03:00,
2013-09-24 06:08:00,71.2,68.4,30.00,South,180,1.0,4.0,91,0.00,,,0.03,WeatherCatV1.15B25,2013-09-24 16:08:00,
2013-09-24 06:13:00,71.3,68.5,30.00,South,180,0.0,1.0,91,0.00,,,0.03,WeatherCatV1.15B25,2013-09-24 16:13:00,
2013-09-24 06:18:00,71.3,68.5,30.00,South,180,2.0,2.0,91,0.00,,,0.03,WeatherCatV1.15B25,2013-09-24 16:18:00,
2013-09-24 06:23:00,71.3,68.5,30.00,South,180,0.0,1.0,91,0.00,,,0.03,WeatherCatV1.15B25,2013-09-24 16:23:00,
2013-09-24 06:28:00,71.5,68.7,30.00,South,176,5.0,7.0,91,0.00,,,0.03,WeatherCatV1.15B25,2013-09-24 16:28:00,
2013-09-24 06:33:00,71.6,69.1,30.00,South,174,0.0,1.0,92,0.00,,,0.04,WeatherCatV1.15B25,2013-09-24 16:33:00,
2013-09-24 06:38:00,71.7,69.2,30.00,South,171,0.0,0.0,92,0.00,,,0.04,WeatherCatV1.15B25,2013-09-24 16:38:00,
2013-09-24 06:43:00,71.6,69.1,30.00,South,171,0.0,0.0,92,0.00,,,0.04,WeatherCatV1.15B25,2013-09-24 16:43:00,
2013-09-24 06:48:00,71.6,69.1,30.00,South,171,0.0,0.0,92,0.00,,,0.04,WeatherCatV1.15B25,2013-09-24 16:48:00,
2013-09-24 06:53:00,71.6,69.1,30.00,South,171,0.0,0.0,92,0.00,,,0.04,WeatherCatV1.15B25,2013-09-24 16:53:00,
2013-09-24 06:58:00,71.6,69.1,30.00,South,171,0.0,1.0,92,0.00,,,0.04,WeatherCatV1.15B25,2013-09-24 16:58:00,
2013-09-24 07:03:00,71.6,69.1,30.01,South,171,0.0,2.0,92,0.00,,,0.04,WeatherCatV1.15B25,2013-09-24 17:03:00,
2013-09-24 07:08:00,71.6,69.1,30.00,South,171,0.0,2.0,92,0.00,,,0.04,WeatherCatV1.15B25,2013-09-24 17:08:00,
2013-09-24 07:13:00,71.7,69.2,30.00,South,171,2.0,5.0,92,0.00,,,0.04,WeatherCatV1.15B25,2013-09-24 17:13:00,
2013-09-24 07:18:00,71.8,69.3,30.01,South,173,5.0,8.0,92,0.00,,,0.04,WeatherCatV1.15B25,2013-09-24 17:18:00,
2013-09-24 07:23:00,71.9,69.4,30.01,South,173,4.0,4.0,92,0.00,,,0.04,WeatherCatV1.15B25,2013-09-24 17:23:00,
2013-09-24 07:28:00,72.1,69.6,30.01,South,173,1.0,5.0,92,0.00,,,0.04,WeatherCatV1.15B25,2013-09-24 17:28:00,
2013-09-24 07:33:00,72.3,69.8,30.02,SSE,159,4.0,4.0,92,0.00,,,0.05,WeatherCatV1.15B25,2013-09-24 17:33:00,
2013-09-24 07:38:00,72.3,69.8,30.01,SE,140,0.0,5.0,92,0.14,,,0.06,WeatherCatV1.15B25,2013-09-24 17:38:00,
2013-09-24 07:43:00,72.4,70.3,30.02,SE,134,0.0,5.0,93,0.06,,,0.06,WeatherCatV1.15B25,2013-09-24 17:43:00,
2013-09-24 07:48:00,72.9,71.1,30.02,SE,137,2.0,6.0,94,0.04,,,0.06,WeatherCatV1.15B25,2013-09-24 17:48:00,
2013-09-24 07:50:00,71.7,69.2,30.01,South,171,1.0,5.0,92,0.00,,,0.00,WeatherCatV1.15B25,2013-09-24 17:50:00,
2013-09-24 07:55:00,71.8,69.3,30.00,South,172,2.0,2.0,92,0.00,,,0.00,WeatherCatV1.15B25,2013-09-24 17:55:00,
2013-09-24 08:00:00,72.0,69.5,30.01,South,172,2.0,4.0,92,0.00,,,0.00,WeatherCatV1.15B25,2013-09-24 18:00:00,
2013-09-24 08:05:00,72.3,69.8,30.02,South,170,2.0,0.0,92,0.00,,,0.00,WeatherCatV1.15B25,2013-09-24 18:05:00,
2013-09-24 08:10:00,72.3,69.8,30.02,SE,145,3.0,5.0,92,0.27,,,0.00,WeatherCatV1.15B25,2013-09-24 18:10:00,
2013-09-24 08:15:00,72.3,70.2,30.02,SE,139,3.0,3.0,93,0.08,,,0.00,WeatherCatV1.15B25,2013-09-24 18:15:00,
2013-09-24 08:25:00,72.8,71.0,30.02,SE,136,2.0,5.0,94,0.05,,,0.00,WeatherCatV1.15B25,2013-09-24 18:25:00,
2013-09-24 08:30:00,72.0,69.5,30.01,South,172,2.0,4.0,92,0.00,,,0.00,WeatherCatV1.15B25,2013-09-24 18:30:00,
2013-09-24 08:35:00,72.1,69.6,30.01,South,171,2.0,7.0,92,0.00,,,0.00,WeatherCatV1.15B25,2013-09-24 18:35:00,
2013-09-24 08:40:00,72.3,69.8,30.02,SSE,152,2.0,9.0,92,0.75,,,0.00,WeatherCatV1.15B25,2013-09-24 18:40:00,
2013-09-24 08:45:00,72.3,70.2,30.02,SE,142,2.0,6.0,93,0.11,,,0.00,WeatherCatV1.15B25,2013-09-24 18:45:00,
2013-09-24 08:50:00,71.7,69.2,30.01,South,171,1.0,6.0,92,0.00,,,0.00,WeatherCatV1.15B25,2013-09-24 18:50:00,
2013-09-24 08:55:00,71.9,69.4,30.01,South,171,2.0,2.0,92,0.00,,,0.00,WeatherCatV1.15B25,2013-09-24 18:55:00,
2013-09-24 08:57:00,72.5,70.4,30.02,SE,136,3.0,5.0,93,0.06,,,0.00,WeatherCatV1.15B25,2013-09-24 18:57:00,
2013-09-24 09:00:00,72.0,69.5,30.01,South,172,2.0,4.0,92,0.00,,,0.00,WeatherCatV1.15B25,2013-09-24 19:00:00,
2013-09-24 09:05:00,72.1,69.6,30.01,South,171,2.0,7.0,92,0.00,,,0.00,WeatherCatV1.15B25,2013-09-24 19:05:00,
2013-09-24 09:10:00,72.3,69.8,30.02,SSE,152,2.0,9.0,92,0.75,,,0.00,WeatherCatV1.15B25,2013-09-24 19:10:00,
2013-09-24 09:15:00,72.3,70.2,30.02,SE,142,2.0,6.0,93,0.11,,,0.00,WeatherCatV1.15B25,2013-09-24 19:15:00,
2013-09-24 09:20:00,71.7,69.2,30.01,South,171,1.0,6.0,92,0.00,,,0.00,WeatherCatV1.15B25,2013-09-24 19:20:00,
2013-09-24 09:25:00,71.9,69.4,30.00,South,172,2.0,4.0,92,0.00,,,0.00,WeatherCatV1.15B25,2013-09-24 19:25:00,
2013-09-24 09:27:00,72.5,70.4,30.02,SE,136,3.0,5.0,93,0.06,,,0.00,WeatherCatV1.15B25,2013-09-24 19:27:00,
2013-09-24 09:30:00,72.0,69.5,30.01,South,172,2.0,6.0,92,0.00,,,0.00,WeatherCatV1.15B25,2013-09-24 19:30:00,
2013-09-24 09:35:00,72.2,69.7,30.01,South,170,2.0,5.0,92,0.00,,,0.00,WeatherCatV1.15B25,2013-09-24 19:35:00,
2013-09-24 09:40:00,72.3,69.8,30.02,SSE,152,2.0,9.0,92,0.75,,,0.00,WeatherCatV1.15B25,2013-09-24 19:40:00,
2013-09-24 09:45:00,72.3,70.2,30.02,SE,142,2.0,6.0,93,0.11,,,0.00,WeatherCatV1.15B25,2013-09-24 19:45:00,
2013-09-24 09:50:00,71.7,69.2,30.01,South,171,1.0,6.0,92,0.00,,,0.00,WeatherCatV1.15B25,2013-09-24 19:50:00,
2013-09-24 09:55:00,71.9,69.4,30.00,South,172,2.0,4.0,92,0.00,,,0.00,WeatherCatV1.15B25,2013-09-24 19:55:00,
2013-09-24 09:57:00,72.5,70.4,30.02,SE,136,3.0,5.0,93,0.06,,,0.00,WeatherCatV1.15B25,2013-09-24 19:57:00,
2013-09-24 10:00:00,72.0,69.5,30.01,South,172,2.0,6.0,92,0.00,,,0.00,WeatherCatV1.15B25,2013-09-24 20:00:00,
2013-09-24 10:05:00,72.2,69.7,30.01,South,170,2.0,5.0,92,0.00,,,0.00,WeatherCatV1.15B25,2013-09-24 20:05:00,
2013-09-24 10:10:00,72.3,69.8,30.02,SSE,147,2.0,6.0,92,0.52,,,0.00,WeatherCatV1.15B25,2013-09-24 20:10:00,
2013-09-24 10:15:00,72.3,70.2,30.02,SE,140,2.0,6.0,93,0.09,,,0.00,WeatherCatV1.15B25,2013-09-24 20:15:00,
2013-09-24 10:20:00,71.7,69.2,30.01,South,171,1.0,6.0,92,0.00,,,0.00,WeatherCatV1.15B25,2013-09-24 20:20:00,
2013-09-24 10:25:00,71.9,69.4,30.00,South,172,2.0,4.0,92,0.00,,,0.00,WeatherCatV1.15B25,2013-09-24 20:25:00,
2013-09-24 10:26:00,72.6,70.5,30.02,SE,136,2.0,5.0,93,0.05,,,0.00,WeatherCatV1.15B25,2013-09-24 20:26:00,
2013-09-24 10:30:00,72.0,69.5,30.01,South,172,2.0,6.0,92,0.00,,,0.00,WeatherCatV1.15B25,2013-09-24 20:30:00,
2013-09-24 10:35:00,72.2,69.7,30.01,South,170,2.0,5.0,92,0.00,,,0.00,WeatherCatV1.15B25,2013-09-24 20:35:00,
2013-09-24 10:40:00,72.3,69.8,30.02,SSE,147,2.0,6.0,92,0.52,,,0.00,WeatherCatV1.15B25,2013-09-24 20:40:00,
2013-09-24 10:45:00,72.3,70.2,30.02,SE,140,2.0,6.0,93,0.09,,,0.00,WeatherCatV1.15B25,2013-09-24 20:45:00,
2013-09-24 10:50:00,71.7,69.2,30.01,South,171,1.0,6.0,92,0.00,,,0.00,WeatherCatV1.15B25,2013-09-24 20:50:00,
2013-09-24 10:55:00,71.9,69.4,30.00,South,172,2.0,4.0,92,0.00,,,0.00,WeatherCatV1.15B25,2013-09-24 20:55:00,
2013-09-24 10:56:00,72.6,70.5,30.02,SE,136,2.0,5.0,93,0.05,,,0.00,WeatherCatV1.15B25,2013-09-24 20:56:00,
2013-09-24 11:00:00,72.0,69.5,30.01,South,172,2.0,6.0,92,0.00,,,0.00,WeatherCatV1.15B25,2013-09-24 21:00:00,
2013-09-24 11:05:00,72.2,69.7,30.01,South,170,2.0,5.0,92,0.00,,,0.00,WeatherCatV1.15B25,2013-09-24 21:05:00,
2013-09-24 11:10:00,72.3,69.8,30.02,SSE,147,2.0,6.0,92,0.52,,,0.00,WeatherCatV1.15B25,2013-09-24 21:10:00,
2013-09-24 11:15:00,72.3,70.2,30.02,SE,140,2.0,6.0,93,0.09,,,0.00,WeatherCatV1.15B25,2013-09-24 21:15:00,
2013-09-24 11:20:00,71.7,69.2,30.01,South,171,1.0,6.0,92,0.00,,,0.00,WeatherCatV1.15B25,2013-09-24 21:20:00,
2013-09-24 11:25:00,71.9,69.4,30.00,South,172,2.0,4.0,92,0.00,,,0.00,WeatherCatV1.15B25,2013-09-24 21:25:00,
2013-09-24 11:26:00,72.6,70.5,30.02,SE,136,2.0,5.0,93,0.05,,,0.00,WeatherCatV1.15B25,2013-09-24 21:26:00,
2013-09-24 11:30:00,72.0,69.5,30.01,South,172,2.0,6.0,92,0.00,,,0.00,WeatherCatV1.15B25,2013-09-24 21:30:00,
2013-09-24 11:35:00,72.2,69.7,30.01,South,170,2.0,5.0,92,0.00,,,0.00,WeatherCatV1.15B25,2013-09-24 21:35:00,
2013-09-24 11:40:00,72.3,69.8,30.02,SSE,147,2.0,6.0,92,0.52,,,0.00,WeatherCatV1.15B25,2013-09-24 21:40:00,
2013-09-24 11:45:00,72.3,70.2,30.02,SE,140,2.0,6.0,93,0.09,,,0.00,WeatherCatV1.15B25,2013-09-24 21:45:00,
2013-09-24 11:50:00,71.7,69.2,30.01,South,171,1.0,6.0,92,0.00,,,0.00,WeatherCatV1.15B25,2013-09-24 21:50:00,
2013-09-24 11:55:00,71.9,69.4,30.00,South,172,2.0,4.0,92,0.00,,,0.00,WeatherCatV1.15B25,2013-09-24 21:55:00,
2013-09-24 11:56:00,72.6,70.5,30.02,SE,136,2.0,5.0,93,0.05,,,0.00,WeatherCatV1.15B25,2013-09-24 21:56:00,
2013-09-24 12:00:00,72.0,69.5,30.01,South,172,2.0,6.0,92,0.00,,,0.00,WeatherCatV1.15B25,2013-09-24 22:00:00,
2013-09-24 12:05:00,72.2,69.7,30.01,South,170,2.0,5.0,92,0.00,,,0.00,WeatherCatV1.15B25,2013-09-24 22:05:00,
2013-09-24 12:10:00,72.3,69.8,30.02,SSE,147,2.0,6.0,92,0.52,,,0.00,WeatherCatV1.15B25,2013-09-24 22:10:00,
2013-09-24 12:15:00,72.3,70.2,30.02,SE,140,2.0,6.0,93,0.09,,,0.00,WeatherCatV1.15B25,2013-09-24 22:15:00,
2013-09-24 12:20:00,71.7,69.2,30.01,South,171,1.0,6.0,92,0.00,,,0.00,WeatherCatV1.15B25,2013-09-24 22:20:00,
2013-09-24 12:25:00,71.9,69.4,30.00,South,172,2.0,4.0,92,0.00,,,0.00,WeatherCatV1.15B25,2013-09-24 22:25:00,
2013-09-24 12:26:00,72.6,70.5,30.02,SE,136,2.0,5.0,93,0.05,,,0.00,WeatherCatV1.15B25,2013-09-24 22:26:00,
2013-09-24 12:30:00,72.0,69.5,30.01,South,172,2.0,6.0,92,0.00,,,0.00,WeatherCatV1.15B25,2013-09-24 22:30:00,
2013-09-24 12:35:00,72.2,69.7,30.01,South,170,2.0,5.0,92,0.00,,,0.00,WeatherCatV1.15B25,2013-09-24 22:35:00,
2013-09-24 12:40:00,72.3,69.8,30.02,SSE,147,2.0,6.0,92,0.52,,,0.00,WeatherCatV1.15B25,2013-09-24 22:40:00,
2013-09-24 12:45:00,72.3,70.2,30.02,SE,140,2.0,6.0,93,0.09,,,0.00,WeatherCatV1.15B25,2013-09-24 22:45:00,
2013-09-24 12:55:00,71.8,69.3,30.01,South,171,2.0,5.0,92,0.00,,,0.00,WeatherCatV1.15B25,2013-09-24 22:55:00,
2013-09-24 12:56:00,72.6,70.5,30.02,SE,136,2.0,5.0,93,0.05,,,0.00,WeatherCatV1.15B25,2013-09-24 22:56:00,
2013-09-24 13:00:00,71.9,69.4,30.01,South,172,2.0,5.0,92,0.00,,,0.00,WeatherCatV1.15B25,2013-09-24 23:00:00,
2013-09-24 13:05:00,72.1,69.6,30.01,South,171,2.0,7.0,92,0.00,,,0.00,WeatherCatV1.15B25,2013-09-24 23:05:00,
2013-09-24 13:10:00,72.3,69.8,30.02,SSE,162,2.0,9.0,92,0.00,,,0.00,WeatherCatV1.15B25,2013-09-24 23:10:00,
2013-09-24 13:15:00,72.3,69.8,30.02,SE,143,2.0,0.0,92,0.14,,,0.00,WeatherCatV1.15B25,2013-09-24 23:15:00,
2013-09-24 13:25:00,71.9,69.4,30.01,South,171,2.0,2.0,92,0.00,,,0.00,WeatherCatV1.15B25,2013-09-24 23:25:00,
2013-09-24 13:28:00,72.4,70.3,30.02,SE,136,3.0,6.0,93,0.06,,,0.00,WeatherCatV1.15B25,2013-09-24 23:28:00,
2013-09-24 13:30:00,72.0,69.5,30.01,South,172,2.0,4.0,92,0.00,,,0.00,WeatherCatV1.15B25,2013-09-24 23:30:00,
2013-09-24 13:35:00,72.1,69.6,30.01,South,171,2.0,7.0,92,0.00,,,0.00,WeatherCatV1.15B25,2013-09-24 23:35:00,
2013-09-24 13:40:00,72.3,69.8,30.02,SSE,162,2.0,9.0,92,0.00,,,0.00,WeatherCatV1.15B25,2013-09-24 23:40:00,
2013-09-24 13:45:00,72.3,69.8,30.02,SE,143,2.0,0.0,92,0.14,,,0.00,WeatherCatV1.15B25,2013-09-24 23:45:00,
2013-09-24 13:55:00,71.9,69.4,30.01,South,171,2.0,2.0,92,0.00,,,0.00,WeatherCatV1.15B25,2013-09-24 23:55:00,
2013-09-24 13:58:00,72.4,70.3,30.02,SE,136,3.0,6.0,93,0.06,,,0.00,WeatherCatV1.15B25,2013-09-24 23:58:00,
2013-09-24 14:00:00,72.0,69.5,30.01,South,172,2.0,4.0,92,0.00,,,0.00,WeatherCatV1.15B25,2013-09-25 00:00:00,
2013-09-24 14:05:00,72.1,69.6,30.01,South,171,2.0,7.0,92,0.00,,,0.00,WeatherCatV1.15B25,2013-09-25 00:05:00,
2013-09-24 14:10:00,72.3,69.8,30.02,SSE,152,2.0,9.0,92,0.75,,,0.00,WeatherCatV1.15B25,2013-09-25 00:10:00,
2013-09-24 14:15:00,72.3,70.2,30.02,SE,142,2.0,6.0,93,0.11,,,0.00,WeatherCatV1.15B25,2013-09-25 00:15:00,
2013-09-24 14:25:00,71.9,69.4,30.01,South,171,2.0,2.0,92,0.00,,,0.00,WeatherCatV1.15B25,2013-09-25 00:25:00,
2013-09-24 14:28:00,72.4,70.3,30.02,SE,136,3.0,6.0,93,0.06,,,0.00,WeatherCatV1.15B25,2013-09-25 00:28:00,
2013-09-24 14:30:00,72.0,69.5,30.01,South,172,2.0,4.0,92,0.00,,,0.00,WeatherCatV1.15B25,2013-09-25 00:30:00,
2013-09-24 14:35:00,72.1,69.6,30.01,South,171,2.0,7.0,92,0.00,,,0.00,WeatherCatV1.15B25,2013-09-25 00:35:00,
2013-09-24 14:40:00,72.3,69.8,30.02,SSE,152,2.0,9.0,92,0.75,,,0.00,WeatherCatV1.15B25,2013-09-25 00:40:00,
2013-09-24 14:45:00,72.3,70.2,30.02,SE,142,2.0,6.0,93,0.11,,,0.00,WeatherCatV1.15B25,2013-09-25 00:45:00,
2013-09-24 14:55:00,71.9,69.4,30.01,South,171,2.0,2.0,92,0.00,,,0.00,WeatherCatV1.15B25,2013-09-25 00:55:00,
2013-09-24 14:57:00,72.5,70.4,30.02,SE,136,3.0,5.0,93,0.06,,,0.00,WeatherCatV1.15B25,2013-09-25 00:57:00,
2013-09-24 15:00:00,72.0,69.5,30.01,South,172,2.0,4.0,92,0.00,,,0.00,WeatherCatV1.15B25,2013-09-25 01:00:00,
2013-09-24 15:05:00,72.1,69.6,30.01,South,171,2.0,7.0,92,0.00,,,0.00,WeatherCatV1.15B25,2013-09-25 01:05:00,
2013-09-24 15:10:00,72.3,69.8,30.02,SSE,152,2.0,9.0,92,0.75,,,0.00,WeatherCatV1.15B25,2013-09-25 01:10:00,
2013-09-24 15:15:00,72.3,70.2,30.02,SE,142,2.0,6.0,93,0.11,,,0.00,WeatherCatV1.15B25,2013-09-25 01:15:00,
2013-09-24 15:25:00,71.9,69.4,30.01,South,171,2.0,2.0,92,0.00,,,0.00,WeatherCatV1.15B25,2013-09-25 01:25:00,
2013-09-24 15:27:00,72.5,70.4,30.02,SE,136,3.0,5.0,93,0.06,,,0.00,WeatherCatV1.15B25,2013-09-25 01:27:00,
2013-09-24 15:30:00,72.0,69.5,30.01,South,172,2.0,4.0,92,0.00,,,0.00,WeatherCatV1.15B25,2013-09-25 01:30:00,
2013-09-24 15:35:00,72.1,69.6,30.01,South,171,2.0,7.0,92,0.00,,,0.00,WeatherCatV1.15B25,2013-09-25 01:35:00,
2013-09-24 15:40:00,72.3,69.8,30.02,SSE,152,2.0,9.0,92,0.75,,,0.00,WeatherCatV1.15B25,2013-09-25 01:40:00,
2013-09-24 15:45:00,72.3,70.2,30.02,SE,142,2.0,6.0,93,0.11,,,0.00,WeatherCatV1.15B25,2013-09-25 01:45:00,
2013-09-24 15:55:00,71.9,69.4,30.01,South,171,2.0,2.0,92,0.00,,,0.00,WeatherCatV1.15B25,2013-09-25 01:55:00,
2013-09-24 15:57:00,72.5,70.4,30.02,SE,136,3.0,5.0,93,0.06,,,0.00,WeatherCatV1.15B25,2013-09-25 01:57:00,
2013-09-24 16:00:00,72.0,69.5,30.01,South,172,2.0,4.0,92,0.00,,,0.00,WeatherCatV1.15B25,2013-09-25 02:00:00,
2013-09-24 16:05:00,72.1,69.6,30.01,South,171,2.0,7.0,92,0.00,,,0.00,WeatherCatV1.15B25,2013-09-25 02:05:00,
2013-09-24 16:10:00,72.3,69.8,30.02,SSE,152,2.0,9.0,92,0.75,,,0.00,WeatherCatV1.15B25,2013-09-25 02:10:00,
2013-09-24 16:15:00,72.3,70.2,30.02,SE,142,2.0,6.0,93,0.11,,,0.00,WeatherCatV1.15B25,2013-09-25 02:15:00,
2013-09-24 16:25:00,71.9,69.4,30.01,South,171,2.0,2.0,92,0.00,,,0.00,WeatherCatV1.15B25,2013-09-25 02:25:00,
2013-09-24 16:27:00,72.5,70.4,30.02,SE,136,3.0,5.0,93,0.06,,,0.00,WeatherCatV1.15B25,2013-09-25 02:27:00,
2013-09-24 16:30:00,72.0,69.5,30.01,South,172,2.0,4.0,92,0.00,,,0.00,WeatherCatV1.15B25,2013-09-25 02:30:00,
2013-09-24 16:35:00,72.1,69.6,30.01,South,171,2.0,7.0,92,0.00,,,0.00,WeatherCatV1.15B25,2013-09-25 02:35:00,
2013-09-24 16:40:00,72.3,69.8,30.02,SSE,152,2.0,9.0,92,0.75,,,0.00,WeatherCatV1.15B25,2013-09-25 02:40:00,
2013-09-24 16:45:00,72.3,70.2,30.02,SE,142,2.0,6.0,93,0.11,,,0.00,WeatherCatV1.15B25,2013-09-25 02:45:00,
2013-09-24 16:50:00,71.7,69.2,30.01,South,171,1.0,6.0,92,0.00,,,0.00,WeatherCatV1.15B25,2013-09-25 02:50:00,
2013-09-24 16:55:00,71.9,69.4,30.00,South,172,2.0,4.0,92,0.00,,,0.00,WeatherCatV1.15B25,2013-09-25 02:55:00,
2013-09-24 16:57:00,72.5,70.4,30.02,SE,136,3.0,5.0,93,0.06,,,0.00,WeatherCatV1.15B25,2013-09-25 02:57:00,
2013-09-24 17:00:00,72.0,69.5,30.01,South,172,2.0,4.0,92,0.00,,,0.00,WeatherCatV1.15B25,2013-09-25 03:00:00,
2013-09-24 17:05:00,72.1,69.6,30.01,South,171,2.0,7.0,92,0.00,,,0.00,WeatherCatV1.15B25,2013-09-25 03:05:00,
2013-09-24 17:10:00,72.3,69.8,30.02,SSE,152,2.0,9.0,92,0.75,,,0.00,WeatherCatV1.15B25,2013-09-25 03:10:00,
2013-09-24 17:15:00,72.3,70.2,30.02,SE,142,2.0,6.0,93,0.11,,,0.00,WeatherCatV1.15B25,2013-09-25 03:15:00,
2013-09-24 17:20:00,71.7,69.2,30.01,South,171,1.0,6.0,92,0.00,,,0.00,WeatherCatV1.15B25,2013-09-25 03:20:00,
2013-09-24 17:25:00,71.9,69.4,30.00,South,172,2.0,4.0,92,0.00,,,0.00,WeatherCatV1.15B25,2013-09-25 03:25:00,
2013-09-24 17:27:00,72.5,70.4,30.02,SE,136,3.0,5.0,93,0.06,,,0.00,WeatherCatV1.15B25,2013-09-25 03:27:00,
2013-09-24 17:30:00,72.0,69.5,30.01,South,172,2.0,6.0,92,0.00,,,0.00,WeatherCatV1.15B25,2013-09-25 03:30:00,
2013-09-24 17:35:00,72.1,69.6,30.01,South,171,2.0,7.0,92,0.00,,,0.00,WeatherCatV1.15B25,2013-09-25 03:35:00,
2013-09-24 17:40:00,72.3,69.8,30.02,SSE,152,2.0,9.0,92,0.75,,,0.00,WeatherCatV1.15B25,2013-09-25 03:40:00,
2013-09-24 17:45:00,72.3,70.2,30.02,SE,142,2.0,6.0,93,0.11,,,0.00,WeatherCatV1.15B25,2013-09-25 03:45:00,
2013-09-24 17:50:00,71.7,69.2,30.01,South,171,1.0,6.0,92,0.00,,,0.00,WeatherCatV1.15B25,2013-09-25 03:50:00,
2013-09-24 17:55:00,71.9,69.4,30.00,South,172,2.0,4.0,92,0.00,,,0.00,WeatherCatV1.15B25,2013-09-25 03:55:00,
2013-09-24 17:57:00,72.5,70.4,30.02,SE,136,3.0,5.0,93,0.06,,,0.00,WeatherCatV1.15B25,2013-09-25 03:57:00,
2013-09-24 18:00:00,72.0,69.5,30.01,South,172,2.0,6.0,92,0.00,,,0.00,WeatherCatV1.15B25,2013-09-25 04:00:00,
2013-09-24 18:05:00,72.2,69.7,30.01,South,170,2.0,5.0,92,0.00,,,0.00,WeatherCatV1.15B25,2013-09-25 04:05:00,
2013-09-24 18:10:00,72.3,69.8,30.02,SSE,147,2.0,6.0,92,0.52,,,0.00,WeatherCatV1.15B25,2013-09-25 04:10:00,
2013-09-24 18:15:00,72.3,70.2,30.02,SE,140,2.0,6.0,93,0.09,,,0.00,WeatherCatV1.15B25,2013-09-25 04:15:00,
2013-09-24 18:20:00,71.7,69.2,30.01,South,171,1.0,6.0,92,0.00,,,0.00,WeatherCatV1.15B25,2013-09-25 04:20:00,
2013-09-24 18:25:00,71.9,69.4,30.00,South,172,2.0,4.0,92,0.00,,,0.00,WeatherCatV1.15B25,2013-09-25 04:25:00,
2013-09-24 18:27:00,72.5,70.4,30.02,SE,136,3.0,5.0,93,0.06,,,0.00,WeatherCatV1.15B25,2013-09-25 04:27:00,
2013-09-24 18:30:00,72.0,69.5,30.01,South,172,2.0,6.0,92,0.00,,,0.00,WeatherCatV1.15B25,2013-09-25 04:30:00,
2013-09-24 18:35:00,72.2,69.7,30.01,South,170,2.0,5.0,92,0.00,,,0.00,WeatherCatV1.15B25,2013-09-25 04:35:00,
2013-09-24 18:40:00,72.3,69.8,30.02,SSE,147,2.0,6.0,92,0.52,,,0.00,WeatherCatV1.15B25,2013-09-25 04:40:00,
2013-09-24 18:45:00,72.3,70.2,30.02,SE,140,2.0,6.0,93,0.09,,,0.00,WeatherCatV1.15B25,2013-09-25 04:45:00,
2013-09-24 18:50:00,71.7,69.2,30.01,South,171,1.0,6.0,92,0.00,,,0.00,WeatherCatV1.15B25,2013-09-25 04:50:00,
2013-09-24 18:55:00,71.9,69.4,30.00,South,172,2.0,4.0,92,0.00,,,0.00,WeatherCatV1.15B25,2013-09-25 04:55:00,
2013-09-24 18:56:00,72.6,70.5,30.02,SE,136,2.0,5.0,93,0.05,,,0.00,WeatherCatV1.15B25,2013-09-25 04:56:00,
2013-09-24 19:00:00,72.0,69.5,30.01,South,172,2.0,6.0,92,0.00,,,0.00,WeatherCatV1.15B25,2013-09-25 05:00:00,
2013-09-24 19:05:00,72.2,69.7,30.01,South,170,2.0,5.0,92,0.00,,,0.00,WeatherCatV1.15B25,2013-09-25 05:05:00,
2013-09-24 19:10:00,72.3,69.8,30.02,SSE,147,2.0,6.0,92,0.52,,,0.00,WeatherCatV1.15B25,2013-09-25 05:10:00,
2013-09-24 19:15:00,72.3,70.2,30.02,SE,140,2.0,6.0,93,0.09,,,0.00,WeatherCatV1.15B25,2013-09-25 05:15:00,
2013-09-24 19:20:00,71.7,69.2,30.01,South,171,1.0,6.0,92,0.00,,,0.00,WeatherCatV1.15B25,2013-09-25 05:20:00,
2013-09-24 19:25:00,71.9,69.4,30.00,South,172,2.0,4.0,92,0.00,,,0.00,WeatherCatV1.15B25,2013-09-25 05:25:00,
2013-09-24 19:26:00,72.6,70.5,30.02,SE,136,2.0,5.0,93,0.05,,,0.00,WeatherCatV1.15B25,2013-09-25 05:26:00,
2013-09-24 19:30:00,72.0,69.5,30.01,South,172,2.0,6.0,92,0.00,,,0.00,WeatherCatV1.15B25,2013-09-25 05:30:00,
2013-09-24 19:35:00,72.2,69.7,30.01,South,170,2.0,5.0,92,0.00,,,0.00,WeatherCatV1.15B25,2013-09-25 05:35:00,
2013-09-24 19:40:00,72.3,69.8,30.02,SSE,147,2.0,6.0,92,0.52,,,0.00,WeatherCatV1.15B25,2013-09-25 05:40:00,
2013-09-24 19:45:00,72.3,70.2,30.02,SE,140,2.0,6.0,93,0.09,,,0.00,WeatherCatV1.15B25,2013-09-25 05:45:00,
2013-09-24 19:50:00,71.7,69.2,30.01,South,171,1.0,6.0,92,0.00,,,0.00,WeatherCatV1.15B25,2013-09-25 05:50:00,
2013-09-24 19:55:00,71.9,69.4,30.00,South,172,2.0,4.0,92,0.00,,,0.00,WeatherCatV1.15B25,2013-09-25 05:55:00,
2013-09-24 19:56:00,72.6,70.5,30.02,SE,136,2.0,5.0,93,0.05,,,0.00,WeatherCatV1.15B25,2013-09-25 05:56:00,
2013-09-24 20:00:00,72.0,69.5,30.01,South,172,2.0,6.0,92,0.00,,,0.00,WeatherCatV1.15B25,2013-09-25 06:00:00,
2013-09-24 20:05:00,72.2,69.7,30.01,South,170,2.0,5.0,92,0.00,,,0.00,WeatherCatV1.15B25,2013-09-25 06:05:00,
2013-09-24 20:10:00,72.3,69.8,30.02,SSE,147,2.0,6.0,92,0.52,,,0.00,WeatherCatV1.15B25,2013-09-25 06:10:00,
2013-09-24 20:15:00,72.3,70.2,30.02,SE,140,2.0,6.0,93,0.09,,,0.00,WeatherCatV1.15B25,2013-09-25 06:15:00,
2013-09-24 20:20:00,71.7,69.2,30.01,South,171,1.0,6.0,92,0.00,,,0.00,WeatherCatV1.15B25,2013-09-25 06:20:00,
2013-09-24 20:25:00,71.9,69.4,30.00,South,172,2.0,4.0,92,0.00,,,0.00,WeatherCatV1.15B25,2013-09-25 06:25:00,
2013-09-24 20:26:00,72.6,70.5,30.02,SE,136,2.0,5.0,93,0.05,,,0.00,WeatherCatV1.15B25,2013-09-25 06:26:00,
2013-09-24 20:30:00,72.0,69.5,30.01,South,172,2.0,6.0,92,0.00,,,0.00,WeatherCatV1.15B25,2013-09-25 06:30:00,
2013-09-24 20:35:00,72.2,69.7,30.01,South,170,2.0,5.0,92,0.00,,,0.00,WeatherCatV1.15B25,2013-09-25 06:35:00,
2013-09-24 20:40:00,72.3,69.8,30.02,SSE,147,2.0,6.0,92,0.52,,,0.00,WeatherCatV1.15B25,2013-09-25 06:40:00,
2013-09-24 20:45:00,72.3,70.2,30.02,SE,140,2.0,6.0,93,0.09,,,0.00,WeatherCatV1.15B25,2013-09-25 06:45:00,
2013-09-24 20:55:00,71.8,69.3,30.01,South,171,2.0,5.0,92,0.00,,,0.00,WeatherCatV1.15B25,2013-09-25 06:55:00,
2013-09-24 20:56:00,72.6,70.5,30.02,SE,136,2.0,5.0,93,0.05,,,0.00,WeatherCatV1.15B25,2013-09-25 06:56:00,
2013-09-24 21:00:00,71.9,69.4,30.01,South,172,2.0,5.0,92,0.00,,,0.00,WeatherCatV1.15B25,2013-09-25 07:00:00,
2013-09-24 21:05:00,72.1,69.6,30.01,South,171,2.0,7.0,92,0.00,,,0.00,WeatherCatV1.15B25,2013-09-25 07:05:00,
2013-09-24 21:10:00,72.3,69.8,30.02,SSE,162,2.0,9.0,92,0.00,,,0.00,WeatherCatV1.15B25,2013-09-25 07:10:00,
2013-09-24 21:15:00,72.3,69.8,30.02,SE,143,2.0,0.0,92,0.14,,,0.00,WeatherCatV1.15B25,2013-09-25 07:15:00,
2013-09-24 21:25:00,71.9,69.4,30.01,South,171,2.0,2.0,92,0.00,,,0.00,WeatherCatV1.15B25,2013-09-25 07:25:00,
2013-09-24 21:28:00,72.4,70.3,30.02,SE,136,3.0,6.0,93,0.06,,,0.00,WeatherCatV1.15B25,2013-09-25 07:28:00,
2013-09-24 21:30:00,72.0,69.5,30.01,South,172,2.0,4.0,92,0.00,,,0.00,WeatherCatV1.15B25,2013-09-25 07:30:00,
2013-09-24 21:35:00,72.1,69.6,30.01,South,171,2.0,7.0,92,0.00,,,0.00,WeatherCatV1.15B25,2013-09-25 07:35:00,
2013-09-24 21:40:00,72.3,69.8,30.02,SSE,162,2.0,9.0,92,0.00,,,0.00,WeatherCatV1.15B25,2013-09-25 07:40:00,
2013-09-24 21:45:00,72.3,69.8,30.02,SE,143,2.0,0.0,92,0.14,,,0.00,WeatherCatV1.15B25,2013-09-25 07:45:00,
2013-09-24 21:55:00,71.9,69.4,30.01,South,171,2.0,2.0,92,0.00,,,0.00,WeatherCatV1.15B25,2013-09-25 07:55:00,
2013-09-24 21:58:00,72.4,70.3,30.02,SE,136,3.0,6.0,93,0.06,,,0.00,WeatherCatV1.15B25,2013-09-25 07:58:00,
2013-09-24 22:00:00,72.0,69.5,30.01,South,172,2.0,4.0,92,0.00,,,0.00,WeatherCatV1.15B25,2013-09-25 08:00:00,
2013-09-24 22:05:00,72.1,69.6,30.01,South,171,2.0,7.0,92,0.00,,,0.00,WeatherCatV1.15B25,2013-09-25 08:05:00,
2013-09-24 22:10:00,72.3,69.8,30.02,SSE,152,2.0,9.0,92,0.75,,,0.00,WeatherCatV1.15B25,2013-09-25 08:10:00,
2013-09-24 22:15:00,72.3,70.2,30.02,SE,142,2.0,6.0,93,0.11,,,0.00,WeatherCatV1.15B25,2013-09-25 08:15:00,
2013-09-24 22:25:00,71.9,69.4,30.01,South,171,2.0,2.0,92,0.00,,,0.00,WeatherCatV1.15B25,2013-09-25 08:25:00,
2013-09-24 22:27:00,72.5,70.4,30.02,SE,136,3.0,5.0,93,0.06,,,0.00,WeatherCatV1.15B25,2013-09-25 08:27:00,
2013-09-24 22:30:00,72.0,69.5,30.01,South,172,2.0,4.0,92,0.00,,,0.00,WeatherCatV1.15B25,2013-09-25 08:30:00,
2013-09-24 22:35:00,72.1,69.6,30.01,South,171,2.0,7.0,92,0.00,,,0.00,WeatherCatV1.15B25,2013-09-25 08:35:00,
2013-09-24 22:40:00,72.3,69.8,30.02,SSE,152,2.0,9.0,92,0.75,,,0.00,WeatherCatV1.15B25,2013-09-25 08:40:00,
2013-09-24 22:45:00,72.3,70.2,30.02,SE,142,2.0,6.0,93,0.11,,,0.00,WeatherCatV1.15B25,2013-09-25 08:45:00,
2013-09-24 22:55:00,71.9,69.4,30.01,South,171,2.0,2.0,92,0.00,,,0.00,WeatherCatV1.15B25,2013-09-25 08:55:00,
2013-09-24 22:57:00,72.5,70.4,30.02,SE,136,3.0,5.0,93,0.06,,,0.00,WeatherCatV1.15B25,2013-09-25 08:57:00,
2013-09-24 23:00:00,72.0,69.5,30.01,South,172,2.0,4.0,92,0.00,,,0.00,WeatherCatV1.15B25,2013-09-25 09:00:00,
2013-09-24 23:05:00,72.1,69.6,30.01,South,171,2.0,7.0,92,0.00,,,0.00,WeatherCatV1.15B25,2013-09-25 09:05:00,
2013-09-24 23:10:00,72.3,69.8,30.02,SSE,152,2.0,9.0,92,0.75,,,0.00,WeatherCatV1.15B25,2013-09-25 09:10:00,
2013-09-24 23:15:00,72.3,70.2,30.02,SE,142,2.0,6.0,93,0.11,,,0.00,WeatherCatV1.15B25,2013-09-25 09:15:00,
2013-09-24 23:25:00,71.9,69.4,30.01,South,171,2.0,2.0,92,0.00,,,0.00,WeatherCatV1.15B25,2013-09-25 09:25:00,
2013-09-24 23:27:00,72.5,70.4,30.02,SE,136,3.0,5.0,93,0.06,,,0.00,WeatherCatV1.15B25,2013-09-25 09:27:00,
2013-09-24 23:30:00,72.0,69.5,30.01,South,172,2.0,4.0,92,0.00,,,0.00,WeatherCatV1.15B25,2013-09-25 09:30:00,
2013-09-24 23:35:00,72.1,69.6,30.01,South,171,2.0,7.0,92,0.00,,,0.00,WeatherCatV1.15B25,2013-09-25 09:35:00,
2013-09-24 23:40:00,72.3,69.8,30.02,SSE,152,2.0,9.0,92,0.75,,,0.00,WeatherCatV1.15B25,2013-09-25 09:40:00,
2013-09-24 23:45:00,72.3,70.2,30.02,SE,142,2.0,6.0,93,0.11,,,0.00,WeatherCatV1.15B25,2013-09-25 09:45:00,
2013-09-24 23:55:00,71.9,69.4,30.01,South,171,2.0,2.0,92,0.00,,,0.00,WeatherCatV1.15B25,2013-09-25 09:55:00,
2013-09-24 23:57:00,72.5,70.4,30.02,SE,136,3.0,5.0,93,0.06,,,0.00,WeatherCatV1.15B25,2013-09-25 09:57:00,